DLH4NF EDDB-EDDM

Flight info

Callsign DLH4NF
Flight time 0h 56m
Altitude 28000
Route LUROS4B LUROS Y211 BEBKU Z36 MAREM DCT VESUB T106 TUSTO T108 LANDU LANDU2B
Aircraft A21N/M-SDE2E3FGIJ1LORWXYZ/HB1

Departure

Time 2026-05-07 11:13
Airport Berlin Brandenburg Airport (EDDB)

Arrival

Time 2026-05-07 12:10
Airport Munich Airport (EDDM)
Time Latitude Longitude Altitude Speed Heading
2026-05-07 10:43 52.36210 13.50697 160 ft 0 kts 69°
2026-05-07 11:01 52.36203 13.50667 160 ft 0 kts 70°
2026-05-07 11:01 52.36194 13.50625 160 ft 0 kts 71°
2026-05-07 11:02 52.36185 13.50583 160 ft 4 kts 72°
2026-05-07 11:02 52.36177 13.50541 160 ft 0 kts 72°
2026-05-07 11:02 52.36169 13.50505 160 ft 0 kts 69°
2026-05-07 11:02 52.36163 13.50466 160 ft 0 kts 89°
2026-05-07 11:03 52.36168 13.50428 160 ft 0 kts 129°
2026-05-07 11:03 52.36184 13.50409 160 ft 0 kts 158°
2026-05-07 11:07 52.36170 13.50418 160 ft 4 kts 158°
2026-05-07 11:08 52.36130 13.50443 160 ft 8 kts 159°
2026-05-07 11:08 52.36065 13.50484 160 ft 12 kts 160°
2026-05-07 11:08 52.35972 13.50542 160 ft 16 kts 159°
2026-05-07 11:08 52.35862 13.50612 160 ft 18 kts 159°
2026-05-07 11:09 52.35760 13.50570 160 ft 19 kts 251°
2026-05-07 11:09 52.35710 13.50360 160 ft 21 kts 249°
2026-05-07 11:09 52.35656 13.50135 160 ft 22 kts 249°
2026-05-07 11:09 52.35599 13.49896 160 ft 23 kts 249°
2026-05-07 11:10 52.35539 13.49643 160 ft 25 kts 249°
2026-05-07 11:10 52.35476 13.49377 160 ft 26 kts 249°
2026-05-07 11:10 52.35410 13.49096 160 ft 27 kts 249°
2026-05-07 11:10 52.35339 13.48802 160 ft 28 kts 249°
2026-05-07 11:11 52.35289 13.48591 160 ft 18 kts 249°
2026-05-07 11:11 52.35235 13.48477 160 ft 13 kts 184°
2026-05-07 11:11 52.35143 13.48529 160 ft 15 kts 156°
2026-05-07 11:11 52.35098 13.48654 160 ft 0 kts 97°
2026-05-07 11:12 52.35088 13.48779 160 ft 24 kts 99°
2026-05-07 11:12 52.35075 13.49084 160 ft 38 kts 68°
2026-05-07 11:13 52.35260 13.49852 160 ft 108 kts 69°
2026-05-07 11:13 52.35603 13.51324 310 ft 155 kts 68°
2026-05-07 11:13 52.35977 13.53029 912 ft 164 kts 78°
2026-05-07 11:13 52.35740 13.54936 1467 ft 189 kts 115°
2026-05-07 11:14 52.34714 13.56437 2052 ft 206 kts 148°
2026-05-07 11:14 52.33468 13.57538 2996 ft 201 kts 147°
2026-05-07 11:14 52.32262 13.58690 3807 ft 202 kts 144°
2026-05-07 11:14 52.31285 13.60286 4512 ft 201 kts 118°
2026-05-07 11:15 52.30908 13.62544 5082 ft 213 kts 93°
2026-05-07 11:15 52.31120 13.64973 5581 ft 229 kts 69°
2026-05-07 11:15 52.31669 13.67488 6422 ft 232 kts 70°
2026-05-07 11:15 52.32169 13.69932 7351 ft 229 kts 70°
2026-05-07 11:16 52.32690 13.72433 8157 ft 237 kts 70°
2026-05-07 11:16 52.32978 13.75117 8930 ft 245 kts 90°
2026-05-07 11:16 52.32861 13.77932 9739 ft 251 kts 93°
2026-05-07 11:16 52.32737 13.80823 10454 ft 258 kts 92°
2026-05-07 11:17 52.32617 13.83786 11184 ft 263 kts 94°
2026-05-07 11:17 52.32491 13.86700 12161 ft 256 kts 94°
2026-05-07 11:17 52.32379 13.89626 12856 ft 260 kts 94°
2026-05-07 11:17 52.32268 13.92584 13534 ft 264 kts 94°
2026-05-07 11:18 52.32155 13.95597 14191 ft 266 kts 94°
2026-05-07 11:18 52.32040 13.98634 14790 ft 270 kts 95°
2026-05-07 11:18 52.31917 14.01734 15335 ft 276 kts 97°
2026-05-07 11:18 52.31512 14.04807 15921 ft 278 kts 116°
2026-05-07 11:19 52.30477 14.07462 16559 ft 279 kts 137°
2026-05-07 11:19 52.28904 14.09297 17214 ft 280 kts 158°
2026-05-07 11:19 52.27022 14.10116 17895 ft 282 kts 174°
2026-05-07 11:19 52.25067 14.10450 18563 ft 284 kts 176°
2026-05-07 11:20 52.23090 14.10755 19144 ft 286 kts 175°
2026-05-07 11:20 52.21113 14.11096 19694 ft 287 kts 174°
2026-05-07 11:20 52.19122 14.11469 20226 ft 288 kts 174°
2026-05-07 11:20 52.17125 14.11863 20729 ft 291 kts 173°
2026-05-07 11:21 52.15102 14.12270 21218 ft 293 kts 173°
2026-05-07 11:21 52.13068 14.12681 21727 ft 296 kts 173°
2026-05-07 11:21 52.11024 14.13098 22213 ft 298 kts 173°
2026-05-07 11:21 52.08952 14.13524 22685 ft 301 kts 173°
2026-05-07 11:22 52.06864 14.13954 23156 ft 304 kts 173°
2026-05-07 11:22 52.04757 14.14387 23614 ft 307 kts 173°
2026-05-07 11:22 52.02628 14.14824 24036 ft 310 kts 173°
2026-05-07 11:22 52.00475 14.15266 24478 ft 313 kts 173°
2026-05-07 11:23 51.98310 14.15710 24913 ft 314 kts 173°
2026-05-07 11:23 51.96134 14.16156 25325 ft 316 kts 173°
2026-05-07 11:23 51.93956 14.16602 25724 ft 317 kts 173°
2026-05-07 11:23 51.91752 14.16999 26112 ft 319 kts 176°
2026-05-07 11:24 51.89534 14.16934 26476 ft 320 kts 190°
2026-05-07 11:24 51.87399 14.15908 26793 ft 323 kts 202°
2026-05-07 11:24 51.85316 14.14451 26980 ft 331 kts 204°
2026-05-07 11:24 51.83189 14.12903 27130 ft 340 kts 204°
2026-05-07 11:25 51.81027 14.11348 27255 ft 349 kts 203°
2026-05-07 11:25 51.78768 14.09759 27403 ft 359 kts 203°
2026-05-07 11:25 51.76445 14.08153 27587 ft 367 kts 203°
2026-05-07 11:25 51.74093 14.06534 27928 ft 367 kts 203°
2026-05-07 11:26 51.69390 14.03296 28007 ft 367 kts 203°
2026-05-07 11:26 51.64709 14.00075 27988 ft 366 kts 203°
2026-05-07 11:27 51.62365 13.98464 27982 ft 366 kts 203°
2026-05-07 11:27 51.60015 13.96851 27979 ft 367 kts 203°
2026-05-07 11:27 51.57672 13.95246 27978 ft 367 kts 203°
2026-05-07 11:27 51.55321 13.93640 27976 ft 367 kts 203°
2026-05-07 11:28 51.52974 13.92035 27972 ft 367 kts 203°
2026-05-07 11:28 51.50624 13.90429 27970 ft 367 kts 203°
2026-05-07 11:28 51.48281 13.88831 27972 ft 367 kts 203°
2026-05-07 11:28 51.45914 13.87303 27974 ft 367 kts 198°
2026-05-07 11:29 51.43442 13.86341 27976 ft 365 kts 192°
2026-05-07 11:29 51.40944 13.85622 27983 ft 365 kts 191°
2026-05-07 11:29 51.38439 13.84929 27988 ft 365 kts 191°
2026-05-07 11:29 51.35939 13.84225 27987 ft 365 kts 191°
2026-05-07 11:30 51.33440 13.83512 27983 ft 365 kts 191°
2026-05-07 11:30 51.30935 13.82795 27970 ft 365 kts 191°
2026-05-07 11:30 51.28434 13.82077 27966 ft 365 kts 191°
2026-05-07 11:30 51.25933 13.81360 27965 ft 365 kts 191°
2026-05-07 11:31 51.23432 13.80644 27970 ft 365 kts 191°
2026-05-07 11:31 51.20934 13.79926 27975 ft 363 kts 191°
2026-05-07 11:31 51.18454 13.79217 27970 ft 363 kts 191°
2026-05-07 11:31 51.15970 13.78506 27969 ft 363 kts 191°
2026-05-07 11:32 51.10998 13.77089 27971 ft 363 kts 191°
2026-05-07 11:32 51.08515 13.76378 27970 ft 362 kts 192°
2026-05-07 11:32 51.06099 13.75308 27970 ft 360 kts 200°
2026-05-07 11:33 51.03774 13.73858 27971 ft 360 kts 202°
2026-05-07 11:33 51.01454 13.72339 27988 ft 360 kts 202°
2026-05-07 11:33 50.99144 13.70835 27992 ft 359 kts 202°
2026-05-07 11:33 50.96831 13.69348 27982 ft 358 kts 202°
2026-05-07 11:34 50.94514 13.67874 27966 ft 359 kts 202°
2026-05-07 11:34 50.92198 13.66413 27962 ft 359 kts 201°
2026-05-07 11:34 50.89876 13.64958 27952 ft 359 kts 201°
2026-05-07 11:34 50.87552 13.63505 27946 ft 359 kts 201°
2026-05-07 11:35 50.85234 13.62054 27953 ft 359 kts 201°
2026-05-07 11:35 50.82915 13.60604 27950 ft 359 kts 201°
2026-05-07 11:35 50.81375 13.59642 27941 ft 359 kts 201°
2026-05-07 11:35 50.78267 13.57697 27936 ft 360 kts 201°
2026-05-07 11:36 50.76724 13.56729 27941 ft 360 kts 201°
2026-05-07 11:36 50.74390 13.55265 27935 ft 361 kts 201°
2026-05-07 11:36 50.72060 13.53800 27929 ft 361 kts 201°
2026-05-07 11:36 50.69733 13.52343 27934 ft 360 kts 201°
2026-05-07 11:37 50.67401 13.50891 27924 ft 361 kts 201°
2026-05-07 11:37 50.65063 13.49438 27927 ft 361 kts 201°
2026-05-07 11:37 50.62730 13.47987 27924 ft 361 kts 201°
2026-05-07 11:37 50.60397 13.46538 27925 ft 361 kts 201°
2026-05-07 11:38 50.58062 13.45094 27929 ft 361 kts 201°
2026-05-07 11:38 50.55722 13.43642 27936 ft 361 kts 201°
2026-05-07 11:38 50.53389 13.42196 27939 ft 361 kts 201°
2026-05-07 11:38 50.51055 13.40757 27940 ft 361 kts 201°
2026-05-07 11:39 50.48718 13.39316 27934 ft 361 kts 201°
2026-05-07 11:39 50.46382 13.37881 27927 ft 361 kts 201°
2026-05-07 11:39 50.44041 13.36442 27925 ft 361 kts 201°
2026-05-07 11:39 50.41707 13.35002 27920 ft 361 kts 201°
2026-05-07 11:40 50.39370 13.33560 27928 ft 361 kts 201°
2026-05-07 11:40 50.37033 13.32121 27921 ft 361 kts 201°
2026-05-07 11:40 50.34696 13.30687 27919 ft 361 kts 201°
2026-05-07 11:40 50.32357 13.29255 27925 ft 361 kts 201°
2026-05-07 11:41 50.30014 13.27826 27916 ft 361 kts 201°
2026-05-07 11:41 50.27672 13.26403 27918 ft 361 kts 201°
2026-05-07 11:41 50.25363 13.24991 27922 ft 361 kts 201°
2026-05-07 11:41 50.22991 13.23538 27925 ft 361 kts 201°
2026-05-07 11:42 50.20685 13.22128 27919 ft 360 kts 201°
2026-05-07 11:42 50.18363 13.20717 27923 ft 358 kts 201°
2026-05-07 11:42 50.16049 13.19310 27923 ft 354 kts 201°
2026-05-07 11:42 50.13745 13.17912 27926 ft 360 kts 201°
2026-05-07 11:43 50.11404 13.16491 27942 ft 361 kts 201°
2026-05-07 11:43 50.09066 13.15073 27933 ft 361 kts 201°
2026-05-07 11:43 50.06724 13.13654 27927 ft 361 kts 201°
2026-05-07 11:43 50.04393 13.12246 27937 ft 360 kts 201°
2026-05-07 11:44 50.02049 13.10833 27945 ft 360 kts 201°
2026-05-07 11:44 49.99715 13.09427 27954 ft 360 kts 201°
2026-05-07 11:44 49.97378 13.08019 27952 ft 360 kts 201°
2026-05-07 11:44 49.95034 13.06633 27945 ft 360 kts 200°
2026-05-07 11:45 49.92682 13.05346 27949 ft 357 kts 199°
2026-05-07 11:45 49.90345 13.04078 27950 ft 354 kts 200°
2026-05-07 11:45 49.88038 13.02823 27946 ft 354 kts 200°
2026-05-07 11:45 49.85690 13.01546 27966 ft 359 kts 200°
2026-05-07 11:46 49.83335 13.00260 27960 ft 359 kts 200°
2026-05-07 11:46 49.80974 12.98974 27964 ft 359 kts 200°
2026-05-07 11:46 49.78614 12.97687 27956 ft 359 kts 200°
2026-05-07 11:46 49.76260 12.96405 27951 ft 360 kts 200°
2026-05-07 11:47 49.73896 12.95119 27962 ft 360 kts 200°
2026-05-07 11:47 49.71539 12.93835 27954 ft 360 kts 200°
2026-05-07 11:47 49.69174 12.92550 27967 ft 360 kts 200°
2026-05-07 11:47 49.66816 12.91267 27959 ft 359 kts 200°
2026-05-07 11:48 49.64467 12.89996 27961 ft 358 kts 200°
2026-05-07 11:48 49.62116 12.88729 27956 ft 357 kts 200°
2026-05-07 11:48 49.59778 12.87471 27959 ft 355 kts 200°
2026-05-07 11:48 49.57454 12.86215 27964 ft 353 kts 200°
2026-05-07 11:49 49.55157 12.84976 27766 ft 346 kts 200°
2026-05-07 11:49 49.52897 12.83758 27216 ft 343 kts 200°
2026-05-07 11:49 49.50650 12.82550 26601 ft 343 kts 199°
2026-05-07 11:49 49.48387 12.81335 25829 ft 347 kts 199°
2026-05-07 11:50 49.46093 12.80101 25080 ft 351 kts 201°
2026-05-07 11:50 49.43788 12.78863 24507 ft 350 kts 201°
2026-05-07 11:50 49.41506 12.77636 24005 ft 346 kts 201°
2026-05-07 11:50 49.39240 12.76418 23483 ft 343 kts 201°
2026-05-07 11:51 49.36991 12.75208 22893 ft 341 kts 201°
2026-05-07 11:51 49.34762 12.74014 22342 ft 338 kts 201°
2026-05-07 11:51 49.32555 12.72828 21792 ft 336 kts 201°
2026-05-07 11:51 49.30386 12.71663 21259 ft 333 kts 201°
2026-05-07 11:52 49.28183 12.70485 20715 ft 330 kts 200°
2026-05-07 11:52 49.26020 12.69332 20183 ft 328 kts 201°
2026-05-07 11:52 49.23871 12.68189 19661 ft 326 kts 201°
2026-05-07 11:52 49.21738 12.67057 19170 ft 323 kts 201°
2026-05-07 11:53 49.19625 12.65938 18692 ft 320 kts 201°
2026-05-07 11:53 49.17524 12.64826 18213 ft 317 kts 201°
2026-05-07 11:53 49.15448 12.63725 17676 ft 315 kts 201°
2026-05-07 11:53 49.13385 12.62634 17140 ft 313 kts 201°
2026-05-07 11:54 49.11336 12.61551 16623 ft 310 kts 201°
2026-05-07 11:54 49.09306 12.60476 16120 ft 308 kts 201°
2026-05-07 11:54 49.07294 12.59410 15615 ft 305 kts 201°
2026-05-07 11:54 49.05292 12.58356 15094 ft 303 kts 201°
2026-05-07 11:55 49.03299 12.57308 14606 ft 302 kts 201°
2026-05-07 11:55 49.01327 12.56265 14143 ft 300 kts 201°
2026-05-07 11:55 48.99359 12.55228 13668 ft 298 kts 201°
2026-05-07 11:55 48.97409 12.54206 13141 ft 296 kts 201°
2026-05-07 11:56 48.95464 12.53184 12615 ft 294 kts 201°
2026-05-07 11:56 48.93535 12.52171 12117 ft 292 kts 201°
2026-05-07 11:56 48.91625 12.51174 11720 ft 287 kts 201°
2026-05-07 11:56 48.89764 12.50200 11415 ft 280 kts 201°
2026-05-07 11:57 48.87936 12.49240 11011 ft 277 kts 201°
2026-05-07 11:57 48.86121 12.48285 10581 ft 276 kts 201°
2026-05-07 11:57 48.84311 12.47339 10139 ft 275 kts 202°
2026-05-07 11:57 48.82503 12.46394 9678 ft 274 kts 202°
2026-05-07 11:58 48.80702 12.45456 9257 ft 274 kts 202°
2026-05-07 11:58 48.78900 12.44520 8998 ft 274 kts 202°
2026-05-07 11:58 48.77104 12.43580 8788 ft 272 kts 202°
2026-05-07 11:58 48.75316 12.42649 8594 ft 272 kts 202°
2026-05-07 11:59 48.73530 12.41721 8417 ft 271 kts 202°
2026-05-07 11:59 48.71755 12.40802 8233 ft 270 kts 202°
2026-05-07 11:59 48.69977 12.39877 8054 ft 270 kts 202°
2026-05-07 11:59 48.68205 12.38957 7873 ft 268 kts 202°
2026-05-07 12:00 48.66443 12.38042 7707 ft 267 kts 202°
2026-05-07 12:00 48.64687 12.37126 7532 ft 267 kts 202°
2026-05-07 12:00 48.62937 12.36216 7345 ft 266 kts 203°
2026-05-07 12:00 48.61184 12.35306 7171 ft 266 kts 202°
2026-05-07 12:01 48.59455 12.34416 7000 ft 266 kts 202°
2026-05-07 12:01 48.57688 12.33501 6824 ft 265 kts 202°
2026-05-07 12:01 48.55990 12.32553 6650 ft 262 kts 211°
2026-05-07 12:01 48.54534 12.30966 6476 ft 257 kts 224°
2026-05-07 12:02 48.53218 12.29140 6311 ft 257 kts 226°
2026-05-07 12:02 48.51909 12.27318 6129 ft 256 kts 225°
2026-05-07 12:02 48.50593 12.25500 5951 ft 256 kts 225°
2026-05-07 12:02 48.49276 12.23691 5768 ft 255 kts 225°
2026-05-07 12:03 48.47962 12.21894 5592 ft 253 kts 225°
2026-05-07 12:03 48.46680 12.20150 5401 ft 243 kts 225°
2026-05-07 12:03 48.45450 12.18471 5221 ft 234 kts 225°
2026-05-07 12:03 48.44271 12.16863 5021 ft 224 kts 225°
2026-05-07 12:04 48.43140 12.15327 4825 ft 214 kts 225°
2026-05-07 12:04 48.42056 12.13861 4645 ft 205 kts 225°
2026-05-07 12:04 48.41007 12.12442 4331 ft 202 kts 225°
2026-05-07 12:04 48.39962 12.11025 4033 ft 200 kts 225°
2026-05-07 12:05 48.38976 12.09556 3958 ft 199 kts 238°
2026-05-07 12:05 48.38513 12.07662 3973 ft 195 kts 262°
2026-05-07 12:05 48.38388 12.05659 3985 ft 188 kts 268°
2026-05-07 12:05 48.38320 12.03720 4061 ft 180 kts 267°
2026-05-07 12:06 48.38203 12.01908 4017 ft 172 kts 264°
2026-05-07 12:06 48.38070 12.00103 3856 ft 173 kts 264°
2026-05-07 12:06 48.37938 11.98373 3658 ft 160 kts 265°
2026-05-07 12:06 48.37815 11.96761 3443 ft 149 kts 265°
2026-05-07 12:07 48.37702 11.95271 3229 ft 141 kts 264°
2026-05-07 12:07 48.37590 11.93807 3044 ft 141 kts 264°
2026-05-07 12:07 48.37479 11.92341 2857 ft 140 kts 265°
2026-05-07 12:07 48.37368 11.90890 2642 ft 138 kts 264°
2026-05-07 12:08 48.37250 11.89448 2440 ft 140 kts 264°
2026-05-07 12:08 48.37141 11.88000 2248 ft 139 kts 265°
2026-05-07 12:08 48.37030 11.86575 2100 ft 137 kts 264°
2026-05-07 12:08 48.36928 11.85147 1889 ft 137 kts 264°
2026-05-07 12:09 48.36818 11.83737 1675 ft 137 kts 263°
2026-05-07 12:09 48.36701 11.82309 1571 ft 138 kts 264°
2026-05-07 12:09 48.36592 11.80918 1491 ft 121 kts 263°
2026-05-07 12:09 48.36518 11.79944 1487 ft 64 kts 263°
2026-05-07 12:10 48.36480 11.79407 1479 ft 50 kts 263°
2026-05-07 12:10 48.36426 11.78978 1482 ft 32 kts 236°
2026-05-07 12:10 48.36311 11.78727 1487 ft 21 kts 233°
2026-05-07 12:10 48.36221 11.78547 1480 ft 22 kts 233°
2026-05-07 12:11 48.36188 11.78491 1491 ft 0 kts 186°
2026-05-07 12:11 48.36187 11.78491 1491 ft 1 kts 186°
2026-05-07 12:11 48.36160 11.78487 1487 ft 7 kts 186°
2026-05-07 12:12 48.36087 11.78486 1491 ft 14 kts 175°
2026-05-07 12:12 48.36037 11.78602 1485 ft 17 kts 83°
2026-05-07 12:12 48.36055 11.78780 1486 ft 18 kts 84°
2026-05-07 12:12 48.36068 11.78982 1491 ft 20 kts 84°
2026-05-07 12:13 48.36082 11.79198 1491 ft 21 kts 84°
2026-05-07 12:13 48.36066 11.79321 1481 ft 11 kts 165°
2026-05-07 12:13 48.35984 11.79337 1485 ft 13 kts 172°
2026-05-07 12:13 48.35893 11.79373 1486 ft 14 kts 161°
2026-05-07 12:14 48.35792 11.79396 1491 ft 15 kts 174°
2026-05-07 12:14 48.35685 11.79414 1487 ft 11 kts 174°
2026-05-07 12:14 48.35651 11.79370 1486 ft 8 kts 248°
2026-05-07 12:14 48.35645 11.79308 1485 ft 3 kts 268°
2026-05-07 12:15 48.35643 11.79277 1491 ft 1 kts 262°
2026-05-07 12:15 48.35642 11.79266 1491 ft 0 kts 262°